| time (UTC) | temp F | wind direction | speed MPH | gust MPH | rain 1hr in | rain 24hr in | rain mn in | humidity % | barometer mb |
| 20260903151916 | 83 | 0 | 0.0 | 0.0 | 0.00 | 0.00 | 0.00 | 38 | 1022.4 |
| 20260903151416 | 84 | 0 | 0.0 | 0.0 | 0.00 | 0.00 | 0.00 | 37 | 1022.4 |
| 20260903150915 | 85 | 0 | 0.0 | 0.0 | 0.00 | 0.00 | 0.00 | 36 | 1022.3 |
| 20260903150415 | 85 | 0 | 0.0 | 0.0 | 0.00 | 0.00 | 0.00 | 37 | 1022.2 |
| 20260903145915 | 85 | 0 | 0.0 | 0.0 | 0.00 | 0.00 | 0.00 | 36 | 1022.3 |
| 20260903145415 | 85 | 0 | 0.0 | 0.0 | 0.00 | 0.00 | 0.00 | 37 | 1022.3 |
| 20260903144914 | 85 | 0 | 0.0 | 0.0 | 0.00 | 0.00 | 0.00 | 36 | 1022.4 |
| 20260903144414 | 86 | 0 | 0.0 | 0.0 | 0.00 | 0.00 | 0.00 | 34 | 1022.1 |
| 20260903143914 | 89 | 0 | 0.0 | 0.0 | 0.00 | 0.00 | 0.00 | 33 | 1022.3 |
| 20260903143413 | 91 | 0 | 0.0 | 0.0 | 0.00 | 0.00 | 0.00 | 33 | 1022.5 |
| 20260903142913 | 92 | 0 | 0.0 | 0.0 | 0.00 | 0.00 | 0.00 | 33 | 1022.4 |
| 20260903142413 | 90 | 0 | 0.0 | 0.0 | 0.00 | 0.00 | 0.00 | 35 | 1022.5 |
| 20260903141913 | 88 | 0 | 0.0 | 0.0 | 0.00 | 0.00 | 0.00 | 36 | 1022.6 |
| 20260903141412 | 86 | 0 | 0.0 | 0.0 | 0.00 | 0.00 | 0.00 | 38 | 1022.6 |
| 20260903140912 | 83 | 0 | 0.0 | 0.0 | 0.00 | 0.00 | 0.00 | 39 | 1022.8 |
| 20260903140412 | 83 | 0 | 0.0 | 0.0 | 0.00 | 0.00 | 0.00 | 39 | 1022.8 |
| 20260903135911 | 81 | 0 | 0.0 | 0.0 | 0.00 | 0.00 | 0.00 | 40 | 1022.8 |
| 20260903135411 | 80 | 0 | 0.0 | 0.0 | 0.00 | 0.00 | 0.00 | 40 | 1022.8 |
| 20260903134911 | 78 | 0 | 0.0 | 0.0 | 0.00 | 0.00 | 0.00 | 40 | 1022.5 |
| 20260903134411 | 78 | 0 | 0.0 | 0.0 | 0.00 | 0.00 | 0.00 | 40 | 1022.6 |
| 20260903133910 | 79 | 0 | 0.0 | 0.0 | 0.00 | 0.00 | 0.00 | 38 | 1022.7 |
| 20260903133410 | 79 | 0 | 0.0 | 0.0 | 0.00 | 0.00 | 0.00 | 37 | 1022.8 |
| 20260903132910 | 81 | 0 | 0.0 | 0.0 | 0.00 | 0.00 | 0.00 | 35 | 1022.8 |
| 20260903132409 | 83 | 0 | 0.0 | 0.0 | 0.00 | 0.00 | 0.00 | 34 | 1022.7 |
| 20260903131909 | 85 | 0 | 0.0 | 0.0 | 0.00 | 0.00 | 0.00 | 35 | 1022.6 |
| 20260903131409 | 84 | 0 | 0.0 | 0.0 | 0.00 | 0.00 | 0.00 | 35 | 1022.7 |
| 20260903130909 | 82 | 0 | 0.0 | 0.0 | 0.00 | 0.00 | 0.00 | 38 | 1022.6 |
| 20260903130408 | 81 | 0 | 0.0 | 0.0 | 0.00 | 0.00 | 0.00 | 39 | 1022.6 |
| 20260903125908 | 81 | 0 | 0.0 | 0.0 | 0.00 | 0.00 | 0.00 | 38 | 1022.5 |
| 20260903125408 | 81 | 0 | 0.0 | 0.0 | 0.00 | 0.00 | 0.00 | 37 | 1022.5 |
| 20260903124907 | 82 | 0 | 0.0 | 0.0 | 0.00 | 0.00 | 0.00 | 36 | 1022.5 |
| 20260903124407 | 83 | 0 | 0.0 | 0.0 | 0.00 | 0.00 | 0.00 | 35 | 1022.4 |
| 20260903123907 | 85 | 0 | 0.0 | 0.0 | 0.00 | 0.00 | 0.00 | 34 | 1022.4 |
| 20260903123407 | 87 | 0 | 0.0 | 0.0 | 0.00 | 0.00 | 0.00 | 33 | 1022.5 |
| 20260903122906 | 88 | 0 | 0.0 | 0.0 | 0.00 | 0.00 | 0.00 | 31 | 1022.6 |
| 20260903122406 | 89 | 0 | 0.0 | 0.0 | 0.00 | 0.00 | 0.00 | 30 | 1022.7 |
| 20260903121906 | 91 | 0 | 0.0 | 0.0 | 0.00 | 0.00 | 0.00 | 32 | 1022.8 |
| 20260903121405 | 89 | 0 | 0.0 | 0.0 | 0.00 | 0.00 | 0.00 | 33 | 1022.9 |
| 20260903120905 | 89 | 0 | 0.0 | 0.0 | 0.00 | 0.00 | 0.00 | 33 | 1022.7 |
| 20260903120405 | 89 | 0 | 0.0 | 0.0 | 0.00 | 0.00 | 0.00 | 32 | 1022.8 |
| 20260903115905 | 91 | 0 | 0.0 | 0.0 | 0.00 | 0.00 | 0.00 | 32 | 1022.7 |
| 20260903115404 | 90 | 0 | 0.0 | 0.0 | 0.00 | 0.00 | 0.00 | 34 | 1022.8 |
| 20260903114904 | 88 | 0 | 0.0 | 0.0 | 0.00 | 0.00 | 0.00 | 35 | 1022.8 |
| 20260903114404 | 87 | 0 | 0.0 | 0.0 | 0.00 | 0.00 | 0.00 | 36 | 1022.9 |
| 20260903113903 | 86 | 0 | 0.0 | 0.0 | 0.00 | 0.00 | 0.00 | 36 | 1022.9 |
| 20260903113403 | 85 | 0 | 0.0 | 0.0 | 0.00 | 0.00 | 0.00 | 37 | 1023.0 |
| 20260903112903 | 86 | 0 | 0.0 | 0.0 | 0.00 | 0.00 | 0.00 | 36 | 1023.0 |
| 20260903112403 | 89 | 0 | 0.0 | 0.0 | 0.00 | 0.00 | 0.00 | 35 | 1023.0 |
| 20260903111902 | 90 | 0 | 0.0 | 0.0 | 0.00 | 0.00 | 0.00 | 34 | 1022.9 |
| 20260903111402 | 89 | 0 | 0.0 | 0.0 | 0.00 | 0.00 | 0.00 | 36 | 1023.0 |
| 20260903110902 | 88 | 0 | 0.0 | 0.0 | 0.00 | 0.00 | 0.00 | 36 | 1023.0 |
| 20260903110402 | 89 | 0 | 0.0 | 0.0 | 0.00 | 0.00 | 0.00 | 36 | 1023.0 |
| 20260903105901 | 89 | 0 | 0.0 | 0.0 | 0.00 | 0.00 | 0.00 | 35 | 1022.9 |
| 20260903105401 | 89 | 0 | 0.0 | 0.0 | 0.00 | 0.00 | 0.00 | 36 | 1022.9 |
| 20260903104901 | 88 | 0 | 0.0 | 0.0 | 0.00 | 0.00 | 0.00 | 37 | 1022.9 |
| 20260903104400 | 88 | 0 | 0.0 | 0.0 | 0.00 | 0.00 | 0.00 | 37 | 1022.9 |
| 20260903103900 | 89 | 0 | 0.0 | 0.0 | 0.00 | 0.00 | 0.00 | 37 | 1022.9 |
| 20260903103400 | 89 | 0 | 0.0 | 0.0 | 0.00 | 0.00 | 0.00 | 37 | 1022.9 |
| 20260903102900 | 89 | 0 | 0.0 | 0.0 | 0.00 | 0.00 | 0.00 | 38 | 1023.0 |
| 20260903102359 | 88 | 0 | 0.0 | 0.0 | 0.00 | 0.00 | 0.00 | 38 | 1023.0 |
| 20260903101859 | 86 | 0 | 0.0 | 0.0 | 0.00 | 0.00 | 0.00 | 40 | 1023.0 |
| 20260903101359 | 85 | 0 | 0.0 | 0.0 | 0.00 | 0.00 | 0.00 | 42 | 1023.0 |
| 20260903100858 | 83 | 0 | 0.0 | 0.0 | 0.00 | 0.00 | 0.00 | 45 | 1023.1 |
| 20260903100358 | 80 | 0 | 0.0 | 0.0 | 0.00 | 0.00 | 0.00 | 48 | 1023.1 |
| 20260903095858 | 79 | 0 | 0.0 | 0.0 | 0.00 | 0.00 | 0.00 | 49 | 1023.0 |
| 20260903095358 | 75 | 0 | 0.0 | 0.0 | 0.00 | 0.00 | 0.00 | 54 | 1023.2 |
| 20260903094857 | 74 | 0 | 0.0 | 0.0 | 0.00 | 0.00 | 0.00 | 54 | 1023.2 |
| 20260903094357 | 73 | 0 | 0.0 | 0.0 | 0.00 | 0.00 | 0.00 | 55 | 1023.3 |
| 20260903093857 | 73 | 0 | 0.0 | 0.0 | 0.00 | 0.00 | 0.00 | 57 | 1023.4 |
| 20260903093356 | 72 | 0 | 0.0 | 0.0 | 0.00 | 0.00 | 0.00 | 57 | 1023.4 |
| 20260903092856 | 72 | 0 | 0.0 | 0.0 | 0.00 | 0.00 | 0.00 | 58 | 1023.1 |
| 20260903092356 | 71 | 0 | 0.0 | 0.0 | 0.00 | 0.00 | 0.00 | 59 | 1023.1 |
| 20260903091856 | 71 | 0 | 0.0 | 0.0 | 0.00 | 0.00 | 0.00 | 59 | 1023.2 |
| 20260903091355 | 71 | 0 | 0.0 | 0.0 | 0.00 | 0.00 | 0.00 | 59 | 1023.4 |
| 20260903090855 | 71 | 0 | 0.0 | 0.0 | 0.00 | 0.00 | 0.00 | 60 | 1023.4 |
| 20260903090355 | 70 | 0 | 0.0 | 0.0 | 0.00 | 0.00 | 0.00 | 60 | 1023.4 |
| 20260903085854 | 70 | 0 | 0.0 | 0.0 | 0.00 | 0.00 | 0.00 | 60 | 1023.2 |
| 20260903085354 | 69 | 0 | 0.0 | 0.0 | 0.00 | 0.00 | 0.00 | 61 | 1023.3 |
| 20260903084854 | 69 | 0 | 0.0 | 0.0 | 0.00 | 0.00 | 0.00 | 62 | 1023.3 |
| 20260903084354 | 68 | 0 | 0.0 | 0.0 | 0.00 | 0.00 | 0.00 | 62 | 1023.2 |
| 20260903083853 | 68 | 0 | 0.0 | 0.0 | 0.00 | 0.00 | 0.00 | 62 | 1023.1 |
| 20260903083353 | 68 | 0 | 0.0 | 0.0 | 0.00 | 0.00 | 0.00 | 62 | 1023.1 |
| 20260903082853 | 68 | 0 | 0.0 | 0.0 | 0.00 | 0.00 | 0.00 | 64 | 1023.0 |
| 20260903082352 | 68 | 0 | 0.0 | 0.0 | 0.00 | 0.00 | 0.00 | 64 | 1023.1 |
| 20260903081852 | 67 | 0 | 0.0 | 0.0 | 0.00 | 0.00 | 0.00 | 64 | 1023.1 |
| 20260903081352 | 67 | 0 | 0.0 | 0.0 | 0.00 | 0.00 | 0.00 | 65 | 1023.4 |
| 20260903080852 | 67 | 0 | 0.0 | 0.0 | 0.00 | 0.00 | 0.00 | 67 | 1023.3 |
| 20260903080351 | 66 | 0 | 0.0 | 0.0 | 0.00 | 0.00 | 0.00 | 67 | 1023.2 |
| 20260903075851 | 66 | 0 | 0.0 | 0.0 | 0.00 | 0.00 | 0.00 | 68 | 1023.2 |
| 20260903075351 | 66 | 0 | 0.0 | 0.0 | 0.00 | 0.00 | 0.00 | 69 | 1023.3 |
| 20260903074850 | 65 | 0 | 0.0 | 0.0 | 0.00 | 0.00 | 0.00 | 71 | 1023.3 |
| 20260903074350 | 64 | 0 | 0.0 | 0.0 | 0.00 | 0.00 | 0.00 | 72 | 1023.3 |
| 20260903073850 | 64 | 0 | 0.0 | 0.0 | 0.00 | 0.00 | 0.00 | 73 | 1023.4 |
| 20260903073350 | 63 | 0 | 0.0 | 0.0 | 0.00 | 0.00 | 0.00 | 74 | 1023.4 |
| 20260903072849 | 63 | 0 | 0.0 | 0.0 | 0.00 | 0.00 | 0.00 | 75 | 1023.4 |
| 20260903072349 | 62 | 0 | 0.0 | 0.0 | 0.00 | 0.00 | 0.00 | 76 | 1023.4 |
| 20260903071849 | 62 | 0 | 0.0 | 0.0 | 0.00 | 0.00 | 0.00 | 77 | 1023.5 |
| 20260903071348 | 61 | 0 | 0.0 | 0.0 | 0.00 | 0.00 | 0.00 | 78 | 1023.6 |
| 20260903070848 | 60 | 0 | 0.0 | 0.0 | 0.00 | 0.00 | 0.00 | 79 | 1023.6 |
| 20260903070348 | 60 | 0 | 0.0 | 0.0 | 0.00 | 0.00 | 0.00 | 80 | 1023.7 |
| 20260903065848 | 59 | 0 | 0.0 | 0.0 | 0.00 | 0.00 | 0.00 | 82 | 1023.6 |
| 20260903065347 | 58 | 0 | 0.0 | 0.0 | 0.00 | 0.00 | 0.00 | 83 | 1023.6 |
| 20260903064847 | 57 | 0 | 0.0 | 0.0 | 0.00 | 0.00 | 0.00 | 84 | 1023.6 |
| 20260903064347 | 57 | 0 | 0.0 | 0.0 | 0.00 | 0.00 | 0.00 | 84 | 1023.6 |
| 20260903063846 | 56 | 0 | 0.0 | 0.0 | 0.00 | 0.00 | 0.00 | 84 | 1023.5 |
| 20260903063346 | 56 | 0 | 0.0 | 0.0 | 0.00 | 0.00 | 0.00 | 84 | 1023.5 |
| 20260903062846 | 56 | 0 | 0.0 | 0.0 | 0.00 | 0.00 | 0.00 | 85 | 1023.4 |
| 20260903062346 | 55 | 0 | 0.0 | 0.0 | 0.00 | 0.00 | 0.00 | 85 | 1023.3 |
| 20260903061845 | 55 | 0 | 0.0 | 0.0 | 0.00 | 0.00 | 0.00 | 85 | 1023.4 |
| 20260903061345 | 54 | 0 | 0.0 | 0.0 | 0.00 | 0.00 | 0.00 | 84 | 1023.4 |
| 20260903060845 | 54 | 0 | 0.0 | 0.0 | 0.00 | 0.00 | 0.00 | 85 | 1023.3 |
| 20260903060345 | 53 | 0 | 0.0 | 0.0 | 0.00 | 0.00 | 0.00 | 85 | 1023.4 |
| 20260903055844 | 53 | 0 | 0.0 | 0.0 | 0.00 | 0.00 | 0.00 | 85 | 1023.4 |
| 20260903055344 | 53 | 0 | 0.0 | 0.0 | 0.00 | 0.00 | 0.00 | 85 | 1023.3 |
| 20260903054844 | 52 | 0 | 0.0 | 0.0 | 0.00 | 0.00 | 0.00 | 85 | 1023.2 |
| 20260903054343 | 52 | 0 | 0.0 | 0.0 | 0.00 | 0.00 | 0.00 | 85 | 1023.2 |
| 20260903053843 | 52 | 0 | 0.0 | 0.0 | 0.00 | 0.00 | 0.00 | 85 | 1023.2 |
| 20260903053343 | 52 | 0 | 0.0 | 0.0 | 0.00 | 0.00 | 0.00 | 85 | 1023.1 |
| 20260903052842 | 52 | 0 | 0.0 | 0.0 | 0.00 | 0.00 | 0.00 | 85 | 1023.0 |
| 20260903052342 | 51 | 0 | 0.0 | 0.0 | 0.00 | 0.00 | 0.00 | 85 | 1023.0 |
| 20260903051842 | 51 | 0 | 0.0 | 0.0 | 0.00 | 0.00 | 0.00 | 85 | 1023.0 |
| 20260903051342 | 51 | 0 | 0.0 | 0.0 | 0.00 | 0.00 | 0.00 | 85 | 1023.0 |
| 20260903050841 | 51 | 0 | 0.0 | 0.0 | 0.00 | 0.00 | 0.00 | 85 | 1023.1 |
| 20260903050341 | 51 | 0 | 0.0 | 0.0 | 0.00 | 0.00 | 0.00 | 85 | 1023.0 |
| 20260903045841 | 51 | 0 | 0.0 | 0.0 | 0.00 | 0.00 | 0.00 | 85 | 1023.0 |
| 20260903045341 | 51 | 0 | 0.0 | 0.0 | 0.00 | 0.00 | 0.00 | 85 | 1022.9 |
| 20260903044840 | 51 | 0 | 0.0 | 0.0 | 0.00 | 0.00 | 0.00 | 84 | 1022.9 |
| 20260903044340 | 51 | 0 | 0.0 | 0.0 | 0.00 | 0.00 | 0.00 | 85 | 1022.8 |
| 20260903043840 | 51 | 0 | 0.0 | 0.0 | 0.00 | 0.00 | 0.00 | 85 | 1022.9 |
| 20260903043339 | 51 | 0 | 0.0 | 0.0 | 0.00 | 0.00 | 0.00 | 85 | 1022.8 |
| 20260903042839 | 51 | 0 | 0.0 | 0.0 | 0.00 | 0.00 | 0.00 | 85 | 1022.8 |
| 20260903042339 | 51 | 0 | 0.0 | 0.0 | 0.00 | 0.00 | 0.00 | 84 | 1022.7 |
| 20260903041839 | 51 | 0 | 0.0 | 0.0 | 0.00 | 0.00 | 0.00 | 84 | 1022.7 |
| 20260903041338 | 51 | 0 | 0.0 | 0.0 | 0.00 | 0.00 | 0.00 | 84 | 1022.6 |
| 20260903040838 | 51 | 0 | 0.0 | 0.0 | 0.00 | 0.00 | 0.00 | 84 | 1022.7 |
| 20260903040338 | 51 | 0 | 0.0 | 0.0 | 0.00 | 0.00 | 0.00 | 84 | 1022.6 |
| 20260903035837 | 51 | 0 | 0.0 | 0.0 | 0.00 | 0.00 | 0.00 | 84 | 1022.7 |
| 20260903035337 | 51 | 0 | 0.0 | 0.0 | 0.00 | 0.00 | 0.00 | 84 | 1022.8 |
| 20260903034837 | 51 | 0 | 0.0 | 0.0 | 0.00 | 0.00 | 0.00 | 84 | 1022.8 |
| 20260903034337 | 51 | 0 | 0.0 | 0.0 | 0.00 | 0.00 | 0.00 | 84 | 1022.8 |
| 20260903033836 | 51 | 0 | 0.0 | 0.0 | 0.00 | 0.00 | 0.00 | 83 | 1022.8 |
| 20260903033336 | 51 | 0 | 0.0 | 0.0 | 0.00 | 0.00 | 0.00 | 83 | 1022.8 |
| 20260903032836 | 51 | 0 | 0.0 | 0.0 | 0.00 | 0.00 | 0.00 | 83 | 1022.9 |
| 20260903032335 | 51 | 0 | 0.0 | 0.0 | 0.00 | 0.00 | 0.00 | 83 | 1023.0 |
| 20260903031835 | 51 | 0 | 0.0 | 0.0 | 0.00 | 0.00 | 0.00 | 83 | 1023.0 |
| 20260903031335 | 52 | 0 | 0.0 | 0.0 | 0.00 | 0.00 | 0.00 | 83 | 1023.0 |
| 20260903030835 | 52 | 0 | 0.0 | 0.0 | 0.00 | 0.00 | 0.00 | 83 | 1022.9 |
| 20260903030334 | 52 | 0 | 0.0 | 0.0 | 0.00 | 0.00 | 0.00 | 83 | 1022.9 |
| 20260903025834 | 52 | 0 | 0.0 | 0.0 | 0.00 | 0.00 | 0.00 | 83 | 1022.9 |
| 20260903025334 | 52 | 0 | 0.0 | 0.0 | 0.00 | 0.00 | 0.00 | 83 | 1022.9 |
| 20260903024833 | 52 | 0 | 0.0 | 0.0 | 0.00 | 0.00 | 0.00 | 83 | 1023.0 |
| 20260903024333 | 53 | 0 | 0.0 | 0.0 | 0.00 | 0.00 | 0.00 | 83 | 1023.0 |
| 20260903023833 | 53 | 0 | 0.0 | 0.0 | 0.00 | 0.00 | 0.00 | 82 | 1023.0 |
| 20260903023333 | 53 | 0 | 0.0 | 0.0 | 0.00 | 0.00 | 0.00 | 82 | 1022.9 |
| 20260903022832 | 53 | 0 | 0.0 | 0.0 | 0.00 | 0.00 | 0.00 | 82 | 1022.9 |
| 20260903022332 | 53 | 0 | 0.0 | 0.0 | 0.00 | 0.00 | 0.00 | 81 | 1022.9 |
| 20260903021832 | 53 | 0 | 0.0 | 0.0 | 0.00 | 0.00 | 0.00 | 81 | 1022.9 |
| 20260903021331 | 54 | 0 | 0.0 | 0.0 | 0.00 | 0.00 | 0.00 | 81 | 1022.9 |
| 20260903020831 | 54 | 0 | 0.0 | 0.0 | 0.00 | 0.00 | 0.00 | 81 | 1022.9 |
| 20260903020331 | 54 | 0 | 0.0 | 0.0 | 0.00 | 0.00 | 0.00 | 81 | 1022.9 |
| 20260903015831 | 54 | 0 | 0.0 | 0.0 | 0.00 | 0.00 | 0.00 | 81 | 1022.9 |
| 20260903015330 | 54 | 0 | 0.0 | 0.0 | 0.00 | 0.00 | 0.00 | 80 | 1022.9 |
| 20260903014830 | 54 | 0 | 0.0 | 0.0 | 0.00 | 0.00 | 0.00 | 79 | 1022.9 |
| 20260903014330 | 55 | 0 | 0.0 | 0.0 | 0.00 | 0.00 | 0.00 | 79 | 1022.9 |
| 20260903013829 | 55 | 0 | 0.0 | 0.0 | 0.00 | 0.00 | 0.00 | 79 | 1022.9 |
| 20260903013329 | 55 | 0 | 0.0 | 0.0 | 0.00 | 0.00 | 0.00 | 79 | 1022.9 |
| 20260903012829 | 55 | 0 | 0.0 | 0.0 | 0.00 | 0.00 | 0.00 | 79 | 1022.9 |
| 20260903012329 | 55 | 0 | 0.0 | 0.0 | 0.00 | 0.00 | 0.00 | 79 | 1022.9 |
| 20260903011828 | 56 | 0 | 0.0 | 0.0 | 0.00 | 0.00 | 0.00 | 78 | 1022.9 |
| 20260903011328 | 56 | 0 | 0.0 | 0.0 | 0.00 | 0.00 | 0.00 | 78 | 1022.9 |
| 20260903010828 | 56 | 0 | 0.0 | 0.0 | 0.00 | 0.00 | 0.00 | 78 | 1022.9 |
| 20260903010327 | 56 | 0 | 0.0 | 0.0 | 0.00 | 0.00 | 0.00 | 78 | 1022.9 |
| 20260903005827 | 56 | 0 | 0.0 | 0.0 | 0.00 | 0.00 | 0.00 | 78 | 1022.8 |
| 20260903005327 | 56 | 0 | 0.0 | 0.0 | 0.00 | 0.00 | 0.00 | 78 | 1022.9 |
| 20260903004827 | 56 | 0 | 0.0 | 0.0 | 0.00 | 0.00 | 0.00 | 78 | 1022.8 |
| 20260903004326 | 56 | 0 | 0.0 | 0.0 | 0.00 | 0.00 | 0.00 | 78 | 1022.8 |
| 20260903003826 | 56 | 0 | 0.0 | 0.0 | 0.00 | 0.00 | 0.00 | 78 | 1022.7 |
| 20260903003326 | 56 | 0 | 0.0 | 0.0 | 0.00 | 0.00 | 0.00 | 78 | 1022.8 |
| 20260903002826 | 56 | 0 | 0.0 | 0.0 | 0.00 | 0.00 | 0.00 | 78 | 1022.8 |
| 20260903002325 | 56 | 0 | 0.0 | 0.0 | 0.00 | 0.00 | 0.00 | 78 | 1022.8 |
| 20260903001825 | 56 | 0 | 0.0 | 0.0 | 0.00 | 0.00 | 0.00 | 78 | 1022.7 |
| 20260903001325 | 57 | 0 | 0.0 | 0.0 | 0.00 | 0.00 | 0.00 | 78 | 1022.7 |
| 20260903000824 | 57 | 0 | 0.0 | 0.0 | 0.00 | 0.00 | 0.00 | 77 | 1022.7 |
| 20260903000325 | 57 | 0 | 0.0 | 0.0 | 0.00 | 0.00 | 0.00 | 77 | 1022.7 |
| 20260902235824 | 57 | 0 | 0.0 | 0.0 | 0.00 | 0.00 | 0.00 | 76 | 1022.7 |
| 20260902235324 | 57 | 0 | 0.0 | 0.0 | 0.00 | 0.00 | 0.00 | 76 | 1022.7 |
| 20260902234823 | 58 | 0 | 0.0 | 0.0 | 0.00 | 0.00 | 0.00 | 76 | 1022.6 |
| 20260902234323 | 58 | 0 | 0.0 | 0.0 | 0.00 | 0.00 | 0.00 | 75 | 1022.7 |
| 20260902233823 | 58 | 0 | 0.0 | 0.0 | 0.00 | 0.00 | 0.00 | 75 | 1022.7 |
| 20260902233322 | 59 | 0 | 0.0 | 0.0 | 0.00 | 0.00 | 0.00 | 74 | 1022.7 |
| 20260902232822 | 59 | 0 | 0.0 | 0.0 | 0.00 | 0.00 | 0.00 | 74 | 1022.7 |
| 20260902232322 | 59 | 0 | 0.0 | 0.0 | 0.00 | 0.00 | 0.00 | 73 | 1022.9 |
| 20260902231822 | 60 | 0 | 0.0 | 0.0 | 0.00 | 0.00 | 0.00 | 73 | 1022.8 |
| 20260902231321 | 60 | 0 | 0.0 | 0.0 | 0.00 | 0.00 | 0.00 | 73 | 1022.9 |
| 20260902230821 | 60 | 0 | 0.0 | 0.0 | 0.00 | 0.00 | 0.00 | 73 | 1022.7 |
| 20260902230321 | 60 | 0 | 0.0 | 0.0 | 0.00 | 0.00 | 0.00 | 72 | 1022.8 |
| 20260902225820 | 60 | 0 | 0.0 | 0.0 | 0.00 | 0.00 | 0.00 | 72 | 1022.8 |
| 20260902225320 | 60 | 0 | 0.0 | 0.0 | 0.00 | 0.00 | 0.00 | 72 | 1022.7 |
| 20260902224820 | 61 | 0 | 0.0 | 0.0 | 0.00 | 0.00 | 0.00 | 72 | 1022.8 |
| 20260902224320 | 61 | 0 | 0.0 | 0.0 | 0.00 | 0.00 | 0.00 | 71 | 1022.7 |
| 20260902223819 | 61 | 0 | 0.0 | 0.0 | 0.00 | 0.00 | 0.00 | 71 | 1022.8 |
| 20260902223319 | 61 | 0 | 0.0 | 0.0 | 0.00 | 0.00 | 0.00 | 71 | 1022.8 |
| 20260902222819 | 62 | 0 | 0.0 | 0.0 | 0.00 | 0.00 | 0.00 | 70 | 1022.8 |
| 20260902222318 | 62 | 0 | 0.0 | 0.0 | 0.00 | 0.00 | 0.00 | 69 | 1022.8 |
| 20260902221818 | 62 | 0 | 0.0 | 0.0 | 0.00 | 0.00 | 0.00 | 69 | 1022.8 |
| 20260902221318 | 62 | 0 | 0.0 | 0.0 | 0.00 | 0.00 | 0.00 | 69 | 1022.9 |
| 20260902220818 | 62 | 0 | 0.0 | 0.0 | 0.00 | 0.00 | 0.00 | 68 | 1022.8 |
| 20260902220317 | 62 | 0 | 0.0 | 0.0 | 0.00 | 0.00 | 0.00 | 68 | 1022.8 |
| 20260902215817 | 62 | 0 | 0.0 | 0.0 | 0.00 | 0.00 | 0.00 | 68 | 1022.9 |
| 20260902215317 | 63 | 0 | 0.0 | 0.0 | 0.00 | 0.00 | 0.00 | 68 | 1022.9 |
| 20260902214816 | 63 | 0 | 0.0 | 0.0 | 0.00 | 0.00 | 0.00 | 68 | 1022.9 |
| 20260902214316 | 63 | 0 | 0.0 | 0.0 | 0.00 | 0.00 | 0.00 | 68 | 1022.7 |
| 20260902213816 | 63 | 0 | 0.0 | 0.0 | 0.00 | 0.00 | 0.00 | 68 | 1022.6 |
| 20260902213316 | 63 | 0 | 0.0 | 0.0 | 0.00 | 0.00 | 0.00 | 68 | 1022.7 |
| 20260902212815 | 63 | 0 | 0.0 | 0.0 | 0.00 | 0.00 | 0.00 | 67 | 1022.6 |
| 20260902212315 | 63 | 0 | 0.0 | 0.0 | 0.00 | 0.00 | 0.00 | 67 | 1022.5 |
| 20260902211815 | 63 | 0 | 0.0 | 0.0 | 0.00 | 0.00 | 0.00 | 66 | 1022.6 |
| 20260902211314 | 63 | 0 | 0.0 | 0.0 | 0.00 | 0.00 | 0.00 | 66 | 1022.6 |
| 20260902210814 | 63 | 0 | 0.0 | 0.0 | 0.00 | 0.00 | 0.00 | 66 | 1022.6 |
| 20260902210314 | 63 | 0 | 0.0 | 0.0 | 0.00 | 0.00 | 0.00 | 66 | 1022.6 |
| 20260902205814 | 63 | 0 | 0.0 | 0.0 | 0.00 | 0.00 | 0.00 | 66 | 1022.5 |
| 20260902205313 | 63 | 0 | 0.0 | 0.0 | 0.00 | 0.00 | 0.00 | 66 | 1022.4 |
| 20260902204813 | 63 | 0 | 0.0 | 0.0 | 0.00 | 0.00 | 0.00 | 66 | 1022.4 |
| 20260902204313 | 64 | 0 | 0.0 | 0.0 | 0.00 | 0.00 | 0.00 | 65 | 1022.4 |
| 20260902203812 | 64 | 0 | 0.0 | 0.0 | 0.00 | 0.00 | 0.00 | 65 | 1022.4 |
| 20260902203312 | 64 | 0 | 0.0 | 0.0 | 0.00 | 0.00 | 0.00 | 65 | 1022.4 |
| 20260902202812 | 64 | 0 | 0.0 | 0.0 | 0.00 | 0.00 | 0.00 | 65 | 1022.5 |
| 20260902202312 | 64 | 0 | 0.0 | 0.0 | 0.00 | 0.00 | 0.00 | 65 | 1022.3 |
| 20260902201811 | 64 | 0 | 0.0 | 0.0 | 0.00 | 0.00 | 0.00 | 65 | 1022.3 |
| 20260902201311 | 64 | 0 | 0.0 | 0.0 | 0.00 | 0.00 | 0.00 | 65 | 1022.3 |
| 20260902200811 | 65 | 0 | 0.0 | 0.0 | 0.00 | 0.00 | 0.00 | 64 | 1022.3 |
| 20260902200310 | 65 | 0 | 0.0 | 0.0 | 0.00 | 0.00 | 0.00 | 62 | 1022.1 |
| 20260902195810 | 65 | 0 | 0.0 | 0.0 | 0.00 | 0.00 | 0.00 | 61 | 1022.0 |
| 20260902195310 | 66 | 0 | 0.0 | 0.0 | 0.00 | 0.00 | 0.00 | 61 | 1022.2 |
| 20260902194810 | 66 | 0 | 0.0 | 0.0 | 0.00 | 0.00 | 0.00 | 61 | 1022.3 |
| 20260902194309 | 66 | 0 | 0.0 | 0.0 | 0.00 | 0.00 | 0.00 | 61 | 1022.2 |
| 20260902193809 | 66 | 0 | 0.0 | 0.0 | 0.00 | 0.00 | 0.00 | 60 | 1022.1 |
| 20260902193309 | 66 | 0 | 0.0 | 0.0 | 0.00 | 0.00 | 0.00 | 60 | 1022.0 |
| 20260902192808 | 66 | 0 | 0.0 | 0.0 | 0.00 | 0.00 | 0.00 | 60 | 1022.1 |
| 20260902192308 | 66 | 0 | 0.0 | 0.0 | 0.00 | 0.00 | 0.00 | 60 | 1022.1 |
| 20260902191808 | 66 | 0 | 0.0 | 0.0 | 0.00 | 0.00 | 0.00 | 60 | 1022.0 |
| 20260902191308 | 66 | 0 | 0.0 | 0.0 | 0.00 | 0.00 | 0.00 | 60 | 1021.9 |
| 20260902190807 | 67 | 0 | 0.0 | 0.0 | 0.00 | 0.00 | 0.00 | 59 | 1022.1 |
| 20260902190307 | 67 | 0 | 0.0 | 0.0 | 0.00 | 0.00 | 0.00 | 58 | 1022.1 |
| 20260902185807 | 67 | 0 | 0.0 | 0.0 | 0.00 | 0.00 | 0.00 | 58 | 1022.0 |
| 20260902185307 | 67 | 0 | 0.0 | 0.0 | 0.00 | 0.00 | 0.00 | 57 | 1021.9 |
| 20260902184806 | 67 | 0 | 0.0 | 0.0 | 0.00 | 0.00 | 0.00 | 57 | 1021.9 |
| 20260902184306 | 67 | 0 | 0.0 | 0.0 | 0.00 | 0.00 | 0.00 | 56 | 1022.0 |
| 20260902183806 | 68 | 0 | 0.0 | 0.0 | 0.00 | 0.00 | 0.00 | 55 | 1022.0 |
| 20260902183305 | 68 | 0 | 0.0 | 0.0 | 0.00 | 0.00 | 0.00 | 54 | 1021.8 |
| 20260902182805 | 68 | 0 | 0.0 | 0.0 | 0.00 | 0.00 | 0.00 | 54 | 1021.8 |
| 20260902182306 | 68 | 0 | 0.0 | 0.0 | 0.00 | 0.00 | 0.00 | 53 | 1021.8 |
| 20260902181805 | 68 | 0 | 0.0 | 0.0 | 0.00 | 0.00 | 0.00 | 53 | 1021.7 |
| 20260902181304 | 69 | 0 | 0.0 | 0.0 | 0.00 | 0.00 | 0.00 | 52 | 1021.6 |
| 20260902180804 | 69 | 0 | 0.0 | 0.0 | 0.00 | 0.00 | 0.00 | 52 | 1021.6 |
| 20260902180304 | 69 | 0 | 0.0 | 0.0 | 0.00 | 0.00 | 0.00 | 52 | 1021.6 |
| 20260902175803 | 69 | 0 | 0.0 | 0.0 | 0.00 | 0.00 | 0.00 | 51 | 1021.5 |
| 20260902175307 | 69 | 0 | 0.0 | 0.0 | 0.00 | 0.00 | 0.00 | 51 | 1021.4 |
| 20260902174803 | 69 | 0 | 0.0 | 0.0 | 0.00 | 0.00 | 0.00 | 50 | 1021.5 |
| 20260902174303 | 70 | 0 | 0.0 | 0.0 | 0.00 | 0.00 | 0.00 | 50 | 1021.3 |
| 20260902173802 | 70 | 0 | 0.0 | 0.0 | 0.00 | 0.00 | 0.00 | 50 | 1021.2 |
| 20260902173302 | 70 | 0 | 0.0 | 0.0 | 0.00 | 0.00 | 0.00 | 49 | 1021.3 |
| 20260902172802 | 71 | 0 | 0.0 | 0.0 | 0.00 | 0.00 | 0.00 | 49 | 1021.2 |
| 20260902172301 | 71 | 0 | 0.0 | 0.0 | 0.00 | 0.00 | 0.00 | 49 | 1021.2 |
| 20260902171801 | 71 | 0 | 0.0 | 0.0 | 0.00 | 0.00 | 0.00 | 48 | 1021.1 |
| 20260902171301 | 72 | 0 | 0.0 | 0.0 | 0.00 | 0.00 | 0.00 | 47 | 1021.3 |
| 20260902170801 | 72 | 0 | 0.0 | 0.0 | 0.00 | 0.00 | 0.00 | 47 | 1021.4 |
| 20260902170300 | 73 | 0 | 0.0 | 0.0 | 0.00 | 0.00 | 0.00 | 46 | 1021.4 |
| 20260902165800 | 73 | 0 | 0.0 | 0.0 | 0.00 | 0.00 | 0.00 | 46 | 1021.2 |
| 20260902165300 | 73 | 0 | 0.0 | 0.0 | 0.00 | 0.00 | 0.00 | 46 | 1021.3 |
| 20260902164759 | 74 | 0 | 0.0 | 0.0 | 0.00 | 0.00 | 0.00 | 46 | 1021.3 |
| 20260902164259 | 74 | 0 | 0.0 | 0.0 | 0.00 | 0.00 | 0.00 | 45 | 1021.1 |
| 20260902163759 | 74 | 0 | 0.0 | 0.0 | 0.00 | 0.00 | 0.00 | 45 | 1021.1 |
| 20260902163259 | 75 | 0 | 0.0 | 0.0 | 0.00 | 0.00 | 0.00 | 44 | 1021.2 |
| 20260902162758 | 75 | 0 | 0.0 | 0.0 | 0.00 | 0.00 | 0.00 | 44 | 1021.2 |
| 20260902162258 | 75 | 0 | 0.0 | 0.0 | 0.00 | 0.00 | 0.00 | 43 | 1021.3 |
| 20260902161758 | 76 | 0 | 0.0 | 0.0 | 0.00 | 0.00 | 0.00 | 41 | 1021.2 |
| 20260902161257 | 77 | 0 | 0.0 | 0.0 | 0.00 | 0.00 | 0.00 | 40 | 1021.2 |
| 20260902160757 | 77 | 0 | 0.0 | 0.0 | 0.00 | 0.00 | 0.00 | 38 | 1021.1 |
| 20260902160257 | 78 | 0 | 0.0 | 0.0 | 0.00 | 0.00 | 0.00 | 37 | 1021.0 |
| 20260902155757 | 79 | 0 | 0.0 | 0.0 | 0.00 | 0.00 | 0.00 | 35 | 1021.0 |
| 20260902155256 | 81 | 0 | 0.0 | 0.0 | 0.00 | 0.00 | 0.00 | 33 | 1021.1 |
| 20260902154756 | 84 | 0 | 0.0 | 0.0 | 0.00 | 0.00 | 0.00 | 31 | 1021.1 |
| 20260902154256 | 86 | 0 | 0.0 | 0.0 | 0.00 | 0.00 | 0.00 | 29 | 1021.1 |
| 20260902153755 | 88 | 0 | 0.0 | 0.0 | 0.00 | 0.00 | 0.00 | 28 | 1021.1 |
| 20260902153255 | 89 | 0 | 0.0 | 0.0 | 0.00 | 0.00 | 0.00 | 27 | 1021.1 |
| 20260902152755 | 89 | 0 | 0.0 | 0.0 | 0.00 | 0.00 | 0.00 | 28 | 1021.1 |